 day,  time,  air_temp(C),  RH(%),  ground_temp10cm(C),  ground_temp20cm(C),  ground_temp40cm(C),  precipitation(mm/h),  Solar_Radiation(MJ/m2h),  lack, 
 03/04/01, 01:00,   2.9,  97,   1.4,   1.7,   1.7,   0.0,  0.00, 
 03/04/01, 02:00,   2.4,  99,   1.4,   1.7,   1.7,   0.5,  0.00, 
 03/04/01, 03:00,   1.8,  98,   1.3,   1.6,   1.7,   0.0,  0.00, 
 03/04/01, 04:00,   1.1,  99,   1.3,   1.6,   1.7,   0.0,  0.00, 
 03/04/01, 05:00,   0.8,  99,   1.2,   1.6,   1.7,   0.0,  0.00, 
 03/04/01, 06:00,  -0.6,  99,   1.2,   1.6,   1.7,   0.0,  0.00, 
 03/04/01, 07:00,  -0.5,  99,   1.2,   1.6,   1.7,   0.0,  0.32, 
 03/04/01, 08:00,   1.1,  98,   1.1,   1.6,   1.7,   0.0,  1.30, 
 03/04/01, 09:00,   2.7,  97,   1.1,   1.6,   1.7,   0.0,  1.91, 
 03/04/01, 10:00,   5.9,  78,   1.3,   1.6,   1.7,   0.0,  2.59, 
 03/04/01, 11:00,   6.9,  71,   1.8,   1.6,   1.8,   0.0,  2.71, 
 03/04/01, 12:00,   8.1,  59,   2.6,   1.6,   1.8,   0.0,  2.83, 
 03/04/01, 13:00,   9.2,  46,   3.5,   1.7,   1.8,   0.0,  3.09, 
 03/04/01, 14:00,   9.7,  43,   4.3,   1.8,   1.8,   0.0,  2.80, 
 03/04/01, 15:00,   9.3,  37,   4.5,   2.0,   1.9,   0.0,  2.23, 
 03/04/01, 16:00,   9.2,  28,   4.5,   2.2,   1.9,   0.0,  1.87, 
 03/04/01, 17:00,   8.6,  24,   4.4,   2.4,   1.9,   0.0,  1.12, 
 03/04/01, 18:00,   7.1,  29,   4.2,   2.5,   1.9,   0.0,  0.35, 
 03/04/01, 19:00,   5.7,  44,   3.9,   2.7,   1.8,   0.0,  0.00, 
 03/04/01, 20:00,   4.0,  66,   3.6,   2.7,   1.9,   0.0,  0.00, 
 03/04/01, 21:00,   3.8,  84,   3.2,   2.8,   1.8,   0.0,  0.00, 
 03/04/01, 22:00,   4.1,  91,   3.1,   2.8,   1.8,   0.0,  0.00, 
 03/04/01, 23:00,   3.8,  90,   2.9,   2.8,   1.9,   0.0,  0.00, 
 03/04/02, 00:00,   2.7,  87,   2.7,   2.8,   1.9,   0.0,  0.00, 
 03/04/02, 01:00,   3.2,  84,   2.5,   2.7,   1.9,   0.0,  0.00, 
 03/04/02, 02:00,   4.2,  81,   2.4,   2.7,   1.9,   0.0,  0.00, 
 03/04/02, 03:00,   4.3,  86,   2.3,   2.7,   2.0,   0.0,  0.00, 
 03/04/02, 04:00,   5.3,  91,   2.3,   2.6,   2.0,   0.0,  0.00, 
 03/04/02, 05:00,   5.0,  99,   2.3,   2.6,   2.0,   0.0,  0.00, 
 03/04/02, 06:00,   3.3,  99,   2.3,   2.5,   2.0,   0.5,  0.00, 
 03/04/02, 07:00,   3.7,  99,   2.3,   2.5,   2.0,   0.5,  0.02, 
 03/04/02, 08:00,   4.0,  99,   2.3,   2.5,   2.0,   0.0,  0.13, 
 03/04/02, 09:00,   5.0,  99,   2.3,   2.5,   2.1,   0.5,  0.29, 
 03/04/02, 10:00,   4.7,  99,   2.4,   2.4,   2.1,   0.5,  0.26, 
 03/04/02, 11:00,   5.0,  99,   2.5,   2.4,   2.1,   1.5,  0.43, 
 03/04/02, 12:00,   5.2,  99,   2.7,   2.4,   2.1,   3.0,  0.57, 
 03/04/02, 13:00,   5.6,  99,   2.9,   2.4,   2.1,   1.0,  0.79, 
 03/04/02, 14:00,   6.4,  99,   3.2,   2.5,   2.1,   0.5,  0.83, 
 03/04/02, 15:00,   6.1,  99,   3.4,   2.5,   2.1,   0.5,  0.66, 
 03/04/02, 16:00,   5.6,  99,   3.7,   2.6,   2.1,   1.0,  0.36, 
 03/04/02, 17:00,   5.2,  99,   3.8,   2.6,   2.1,   1.0,  0.21, 
 03/04/02, 18:00,   4.2,  99,   3.8,   2.7,   2.1,   1.0,  0.04, 
 03/04/02, 19:00,   3.2,  99,   3.7,   2.8,   2.1,   1.0,  0.00, 
 03/04/02, 20:00,   1.6,  99,   3.6,   2.9,   2.1,   0.0,  0.00, 
 03/04/02, 21:00,   0.7,  99,   3.5,   2.9,   2.1,   0.5,  0.00, 
 03/04/02, 22:00,   2.0,  99,   3.3,   2.9,   2.1,   0.0,  0.00, 
 03/04/02, 23:00,   2.6,  99,   3.2,   2.9,   2.1,   0.0,  0.00, 
 03/04/03, 00:00,   1.8,  99,   3.1,   2.9,   2.2,   0.5,  0.00, 
 03/04/03, 01:00,   2.3,  99,   2.9,   2.9,   2.2,   0.0,  0.00, 
 03/04/03, 02:00,   0.8,  99,   2.8,   2.9,   2.2,   0.0,  0.00, 
 03/04/03, 03:00,   1.2,  99,   2.7,   2.8,   2.2,   0.0,  0.00, 
 03/04/03, 04:00,  -0.1,  99,   2.6,   2.7,   2.2,   0.0,  0.00, 
 03/04/03, 05:00,   0.3,  99,   2.5,   2.7,   2.2,   0.0,  0.00, 
 03/04/03, 06:00,  -0.4,  99,   2.3,   2.8,   2.3,   0.0,  0.00, 
 03/04/03, 07:00,  -0.4,  99,   2.3,   2.6,   2.3,   0.0,  0.13, 
 03/04/03, 08:00,   0.1,  99,   2.2,   2.7,   2.3,   0.0,  0.49, 
 03/04/03, 09:00,   1.0,  99,   2.3,   2.6,   2.3,   0.0,  1.04, 
 03/04/03, 10:00,   1.7,  99,   2.5,   2.5,   2.3,   0.0,  1.59, 
 03/04/03, 11:00,   4.7,  99,   3.0,   2.6,   2.3,   0.0,  2.75, 
 03/04/03, 12:00,   8.1,  63,   3.9,   2.6,   2.3,   0.0,  2.95, 
 03/04/03, 13:00,   9.8,  53,   5.0,   2.6,   2.3,   0.0,  3.13, 
 03/04/03, 14:00,  10.4,  55,   5.9,   2.8,   2.3,   0.0,  2.84, 
 03/04/03, 15:00,  10.8,  52,   6.2,   2.9,   2.3,   0.0,  2.27, 
 03/04/03, 16:00,  10.4,  50,   6.2,   3.1,   2.3,   0.0,  1.91, 
 03/04/03, 17:00,   9.4,  54,   6.1,   3.4,   2.3,   0.0,  1.18, 
 03/04/03, 18:00,   7.1,  73,   5.9,   3.5,   2.3,   0.0,  0.39, 
 03/04/03, 19:00,   5.8,  81,   5.6,   3.7,   2.4,   0.0,  0.00, 
 03/04/03, 20:00,   5.2,  93,   5.3,   3.8,   2.4,   0.0,  0.00, 
 03/04/03, 21:00,   4.7,  96,   5.1,   3.9,   2.4,   0.0,  0.00, 
 03/04/03, 22:00,   3.9,  99,   4.9,   3.9,   2.4,   0.0,  0.00, 
 03/04/03, 23:00,   3.7,  99,   4.7,   3.9,   2.4,   0.0,  0.00, 
 03/04/04, 00:00,   3.5,  99,   4.6,   3.9,   2.5,   0.0,  0.00, 
 03/04/04, 01:00,   3.0,  99,   4.5,   3.9,   2.5,   0.0,  0.00, 
 03/04/04, 02:00,   2.9,  98,   4.3,   3.9,   2.5,   0.0,  0.00, 
 03/04/04, 03:00,   2.6,  99,   4.2,   3.9,   2.6,   0.0,  0.00, 
 03/04/04, 04:00,   2.2,  99,   4.1,   3.8,   2.6,   0.0,  0.00, 
 03/04/04, 05:00,   2.2,  99,   4.0,   3.7,   2.6,   0.0,  0.00, 
 03/04/04, 06:00,   2.0,  99,   3.8,   3.8,   2.6,   0.0,  0.00, 
 03/04/04, 07:00,   2.0,  99,   3.7,   3.7,   2.7,   0.0,  0.08, 
 03/04/04, 08:00,   2.9,  87,   3.7,   3.7,   2.7,   0.0,  0.65, 
 03/04/04, 09:00,   4.6,  77,   3.8,   3.7,   2.7,   0.5,  1.31, 
 03/04/04, 10:00,   5.0,  78,   4.0,   3.6,   2.7,   0.0,  1.85, 
 03/04/04, 11:00,   5.5,  79,   4.4,   3.6,   2.7,   0.0,  2.09, 
 03/04/04, 12:00,   5.3,  79,   4.9,   3.6,   2.8,   0.0,  1.01, 
 03/04/04, 13:00,   6.3,  66,   5.2,   3.7,   2.8,   0.0,  1.53, 
 03/04/04, 14:00,   6.0,  57,   5.6,   3.7,   2.8,   0.0,  0.96, 
 03/04/04, 15:00,   4.7,  50,   5.8,   3.8,   2.9,   0.0,  0.64, 
 03/04/04, 16:00,   2.0,  85,   5.8,   3.9,   2.9,   0.0,  0.35, 
 03/04/04, 17:00,   0.6,  97,   5.7,   4.0,   2.9,   0.0,  0.07, 
 03/04/04, 18:00,   0.0,  99,   5.4,   4.1,   2.9,   2.0,  0.00, 
 03/04/04, 19:00,   0.4,  98,   5.1,   4.1,   2.9,   2.5,  0.00, 
 03/04/04, 20:00,   0.3,  99,   4.8,   4.1,   2.9,   2.0,  0.00, 
 03/04/04, 21:00,   0.2,  99,   4.5,   4.1,   2.9,   1.5,  0.00, 
 03/04/04, 22:00,   0.3,  99,   4.3,   4.1,   2.9,   1.5,  0.00, 
 03/04/04, 23:00,   0.3,  99,   4.1,   4.1,   2.9,   1.0,  0.00, 
 03/04/05, 00:00,   0.3,  99,   4.0,   4.0,   2.9,   1.0,  0.00, 
 03/04/05, 01:00,   0.2,  99,   3.9,   4.0,   3.0,   0.5,  0.00, 
 03/04/05, 02:00,  -0.1,  99,   3.7,   3.9,   3.0,   1.0,  0.00, 
 03/04/05, 03:00,   0.0,  99,   3.5,   3.9,   3.0,   1.0,  0.00, 
 03/04/05, 04:00,  -0.1,  99,   3.4,   3.8,   3.0,   0.5,  0.00, 
 03/04/05, 05:00,  -0.5,  99,   3.3,   3.8,   3.0,   1.0,  0.00, 
 03/04/05, 06:00,  -0.7,  99,   3.2,   3.7,   3.0,   1.0,  0.00, 
 03/04/05, 07:00,  -0.5,  99,   3.1,   3.7,   3.1,   1.5,  0.00, 
 03/04/05, 08:00,  -1.0,  99,   3.0,   3.6,   3.1,   2.5,  0.00, 
 03/04/05, 09:00,  -1.0,  99,   2.9,   3.5,   3.1,   2.5,  0.00, 
 03/04/05, 10:00,  -0.7,  99,   2.9,   3.5,   3.1,   3.0,  0.09, 
 03/04/05, 11:00,  -0.9,  99,   2.8,   3.4,   3.1,   2.5,  0.11, 
 03/04/05, 12:00,  -0.9,  99,   2.7,   3.4,   3.1,   2.0,  0.14, 
 03/04/05, 13:00,  -0.3,  99,   2.6,   3.3,   3.1,   2.0,  0.23, 
 03/04/05, 14:00,  -0.5,  99,   2.6,   3.3,   3.1,   1.0,  0.22, 
 03/04/05, 15:00,  -0.7,  99,   2.5,   3.2,   3.1,   0.5,  0.15, 
 03/04/05, 16:00,  -1.1,  99,   2.5,   3.1,   3.1,   1.0,  0.04, 
 03/04/05, 17:00,  -1.3,  99,   2.4,   3.2,   3.1,   1.5,  0.00, 
 03/04/05, 18:00,  -1.1,  96,   2.4,   3.1,   3.1,   1.5,  0.00, 
 03/04/05, 19:00,  -1.1,  96,   2.3,   3.1,   3.1,   0.0,  0.00, 
 03/04/05, 20:00,  -1.1,  94,   2.3,   3.0,   3.1,   0.0,  0.00, 
 03/04/05, 21:00,  -1.1,  95,   2.2,   3.0,   3.1,   0.0,  0.00, 
 03/04/05, 22:00,  -1.0,  98,   2.2,   2.8,   3.1,   0.5,  0.00, 
 03/04/05, 23:00,  -1.3,  95,   2.2,   2.8,   3.1,   0.0,  0.00, 
 03/04/06, 00:00,  -1.7,  95,   2.1,   2.9,   3.1,   0.5,  0.00, 
 03/04/06, 01:00,  -2.4,  94,   2.1,   2.8,   3.0,   2.0,  0.00, 
 03/04/06, 02:00,  -2.7,  96,   2.0,   2.7,   3.0,   0.0,  0.00, 
 03/04/06, 03:00,  -3.4,  93,   2.0,   2.7,   3.0,   0.5,  0.00, 
 03/04/06, 04:00,  -3.9,  94,   2.0,   2.6,   3.0,   0.0,  0.00, 
 03/04/06, 05:00,  -4.2,  91,   2.0,   2.6,   3.0,   0.0,  0.00, 
 03/04/06, 06:00,  -4.4,  90,   1.9,   2.6,   3.0,   0.0,  0.00, 
 03/04/06, 07:00,  -4.4,  92,   1.9,   2.5,   3.0,   0.0,  0.03, 
 03/04/06, 08:00,  -4.2,  87,   1.9,   2.5,   3.0,   0.0,  0.15, 
 03/04/06, 09:00,  -2.9,  84,   1.8,   2.5,   3.0,   0.0,  0.46, 
 03/04/06, 10:00,  -1.5,  91,   1.8,   2.6,   3.0,   0.0,  0.72, 
 03/04/06, 11:00,  -0.1,  80,   1.8,   2.4,   3.0,   0.0,  0.83, 
 03/04/06, 12:00,   0.0,  74,   1.8,   2.5,   3.0,   0.0,  0.97, 
 03/04/06, 13:00,   1.1,  69,   1.8,   2.4,   3.0,   0.0,  1.14, 
 03/04/06, 14:00,   1.7,  66,   1.8,   2.4,   2.9,   0.0,  1.33, 
 03/04/06, 15:00,   2.5,  62,   1.7,   2.4,   2.9,   0.5,  1.80, 
 03/04/06, 16:00,   1.9,  50,   1.7,   2.4,   2.9,   0.0,  1.80, 
 03/04/06, 17:00,   1.5,  56,   1.7,   2.4,   2.9,   0.0,  1.25, 
 03/04/06, 18:00,   1.0,  50,   1.7,   2.4,   2.9,   0.0,  0.38, 
 03/04/06, 19:00,  -0.4,  61,   1.7,   2.4,   2.9,   0.0,  0.00, 
 03/04/06, 20:00,   0.9,  46,   1.6,   2.4,   2.9,   0.0,  0.00, 
 03/04/06, 21:00,   1.6,  34,   1.6,   2.3,   2.9,   0.0,  0.00, 
 03/04/06, 22:00,   0.7,  38,   1.6,   2.3,   2.9,   0.0,  0.00, 
 03/04/06, 23:00,   0.8,  43,   1.6,   2.3,   2.9,   0.0,  0.00, 
 03/04/07, 00:00,   0.6,  47,   1.6,   2.3,   2.8,   0.0,  0.00, 
 03/04/07, 01:00,  -0.5,  50,   1.6,   2.2,   2.8,   0.0,  0.00, 
 03/04/07, 02:00,   1.0,  48,   1.6,   2.1,   2.8,   0.0,  0.00, 
 03/04/07, 03:00,   1.0,  49,   1.5,   2.1,   2.8,   0.0,  0.00, 
 03/04/07, 04:00,   0.5,  51,   1.5,   2.1,   2.7,   0.0,  0.00, 
 03/04/07, 05:00,   0.7,  46,   1.5,   2.1,   2.8,   0.0,  0.00, 
 03/04/07, 06:00,   1.5,  39,   1.5,   2.1,   2.8,   0.0,  0.01, 
 03/04/07, 07:00,   1.5,  48,   1.5,   2.1,   2.8,   0.0,  0.45, 
 03/04/07, 08:00,   3.3,  43,   1.5,   2.0,   2.8,   0.0,  1.18, 
 03/04/07, 09:00,   5.1,  42,   1.4,   2.0,   2.8,   0.0,  2.10, 
 03/04/07, 10:00,   7.3,  37,   1.4,   2.1,   2.8,   0.0,  2.71, 
 03/04/07, 11:00,   8.1,  41,   1.4,   2.1,   2.7,   0.0,  3.17, 
 03/04/07, 12:00,   9.7,  32,   1.4,   2.1,   2.7,   0.0,  3.41, 
 03/04/07, 13:00,  10.9,  26,   1.5,   2.1,   2.7,   0.0,  3.29, 
 03/04/07, 14:00,  11.8,  24,   1.5,   2.1,   2.7,   0.0,  2.85, 
 03/04/07, 15:00,  12.2,  27,   1.6,   2.1,   2.7,   0.0,  2.38, 
 03/04/07, 16:00,  10.9,  29,   1.6,   2.0,   2.7,   0.0,  1.84, 
 03/04/07, 17:00,   9.2,  32,   1.6,   2.1,   2.7,   0.0,  0.80, 
 03/04/07, 18:00,   6.8,  38,   1.6,   2.1,   2.6,   0.0,  0.29, 
 03/04/07, 19:00,   6.0,  40,   1.6,   2.1,   2.6,   0.0,  0.00, 
 03/04/07, 20:00,   5.5,  43,   1.6,   2.1,   2.6,   0.0,  0.00, 
 03/04/07, 21:00,   4.9,  43,   1.5,   2.1,   2.6,   0.0,  0.00, 
 03/04/07, 22:00,   4.8,  44,   1.5,   2.0,   2.6,   0.0,  0.00, 
 03/04/07, 23:00,   5.0,  52,   1.5,   2.0,   2.6,   0.0,  0.00, 
 03/04/08, 00:00,   4.7,  66,   1.4,   2.0,   2.6,   0.0,  0.00, 
 03/04/08, 01:00,   5.2,  73,   1.4,   2.0,   2.6,   0.0,  0.00, 
 03/04/08, 02:00,   5.2,  77,   1.4,   2.0,   2.6,   0.0,  0.00, 
 03/04/08, 03:00,   5.2,  76,   1.4,   2.0,   2.6,   0.0,  0.00, 
 03/04/08, 04:00,   3.8,  87,   1.4,   2.0,   2.6,   0.0,  0.00, 
 03/04/08, 05:00,   4.2,  88,   1.4,   2.0,   2.6,   0.5,  0.00, 
 03/04/08, 06:00,   4.5,  84,   1.4,   2.0,   2.5,   0.0,  0.00, 
 03/04/08, 07:00,   5.9,  74,   1.4,   2.0,   2.5,   0.5,  0.10, 
 03/04/08, 08:00,   6.3,  75,   1.4,   1.9,   2.5,   0.0,  0.47, 
 03/04/08, 09:00,   6.0,  77,   1.5,   1.9,   2.5,   0.0,  0.27, 
 03/04/08, 10:00,   7.5,  75,   1.5,   1.9,   2.5,   0.0,  0.71, 
 03/04/08, 11:00,   6.7,  84,   1.7,   1.9,   2.5,   0.0,  0.67, 
 03/04/08, 12:00,   5.7,  93,   1.9,   1.9,   2.5,   1.0,  0.39, 
 03/04/08, 13:00,   7.8,  78,   2.1,   1.9,   2.6,   2.0,  0.27, 
 03/04/08, 14:00,   8.2,  83,   2.2,   2.0,   2.6,   2.0,  0.50, 
 03/04/08, 15:00,   7.3,  99,   2.4,   2.0,   2.5,   3.5,  0.24, 
 03/04/08, 16:00,   8.3,  99,   2.7,   2.0,   2.4,   0.5,  0.31, 
 03/04/08, 17:00,   7.1,  99,   3.0,   2.1,   2.5,  10.5,  0.10, 
 03/04/08, 18:00,   7.2,  99,   3.1,   2.2,   2.5,   1.0,  0.00, 
 03/04/08, 19:00,   5.4,  99,   3.2,   2.3,   2.5,   2.0,  0.00, 
 03/04/08, 20:00,   3.4,  99,   3.1,   2.4,   2.4,   0.0,  0.00, 
 03/04/08, 21:00,   2.9,  98,   3.0,   2.4,   2.4,   0.0,  0.00, 
 03/04/08, 22:00,   2.5,  96,   3.0,   2.5,   2.5,   0.0,  0.00, 
 03/04/08, 23:00,   2.2,  94,   2.8,   2.5,   2.4,   0.0,  0.00, 
 03/04/09, 00:00,   1.7,  98,   2.7,   2.5,   2.4,   0.0,  0.00, 
 03/04/09, 01:00,   1.1,  99,   2.7,   2.5,   2.4,   0.5,  0.00, 
 03/04/09, 02:00,   1.1,  99,   2.6,   2.6,   2.4,   0.0,  0.00, 
 03/04/09, 03:00,   1.3,  99,   2.5,   2.6,   2.4,   0.5,  0.00, 
 03/04/09, 04:00,   1.1,  97,   2.4,   2.6,   2.4,   0.0,  0.00, 
 03/04/09, 05:00,   0.9,  96,   2.3,   2.6,   2.5,   0.0,  0.00, 
 03/04/09, 06:00,   0.7,  94,   2.3,   2.5,   2.5,   0.0,  0.00, 
 03/04/09, 07:00,   0.5,  98,   2.2,   2.5,   2.5,   0.0,  0.06, 
 03/04/09, 08:00,   0.7,  94,   2.2,   2.5,   2.5,   0.0,  0.32, 
 03/04/09, 09:00,   1.3,  93,   2.2,   2.5,   2.5,   0.0,  0.74, 
 03/04/09, 10:00,   2.1,  91,   2.3,   2.5,   2.5,   0.0,  1.08, 
 03/04/09, 11:00,   1.9,  87,   2.6,   2.5,   2.5,   0.0,  1.26, 
 03/04/09, 12:00,   2.3,  86,   2.8,   2.5,   2.6,   0.5,  1.21, 
 03/04/09, 13:00,   2.9,  76,   3.1,   2.5,   2.6,   0.0,  1.74, 
 03/04/09, 14:00,   1.8,  81,   3.5,   2.5,   2.6,   0.0,  0.92, 
 03/04/09, 15:00,   1.1,  83,   3.6,   2.6,   2.6,   0.0,  0.44, 
 03/04/09, 16:00,   0.7,  83,   3.6,   2.7,   2.6,   0.0,  0.41, 
 03/04/09, 17:00,  -1.0,  92,   3.5,   2.7,   2.6,   0.0,  0.28, 
 03/04/09, 18:00,  -1.4,  91,   3.3,   2.8,   2.6,   0.0,  0.05, 
 03/04/09, 19:00,  -1.8,  91,   3.2,   2.8,   2.6,   0.0,  0.00, 
 03/04/09, 20:00,  -2.2,  92,   3.0,   2.8,   2.6,   0.0,  0.00, 
 03/04/09, 21:00,  -2.8,  97,   2.8,   2.9,   2.6,   0.0,  0.00, 
 03/04/09, 22:00,  -3.5,  97,   2.6,   2.8,   2.6,   0.0,  0.00, 
 03/04/09, 23:00,  -3.3,  91,   2.4,   2.8,   2.6,   0.0,  0.00, 
 03/04/10, 00:00,  -4.2,  90,   2.3,   2.8,   2.6,   0.0,  0.00, 
 03/04/10, 01:00,  -4.9,  84,   2.1,   2.7,   2.7,   0.0,  0.00, 
 03/04/10, 02:00,  -5.2,  83,   2.0,   2.7,   2.7,   0.0,  0.00, 
 03/04/10, 03:00,  -5.4,  86,   1.8,   2.5,   2.7,   0.0,  0.00, 
 03/04/10, 04:00,  -5.0,  89,   1.7,   2.5,   2.7,   0.0,  0.00, 
 03/04/10, 05:00,  -5.3,  82,   1.6,   2.4,   2.7,   0.0,  0.00, 
 03/04/10, 06:00,  -5.8,  86,   1.4,   2.4,   2.7,   0.0,  0.01, 
 03/04/10, 07:00,  -4.3,  81,   1.4,   2.4,   2.7,   0.0,  0.74, 
 03/04/10, 08:00,  -3.8,  73,   1.3,   2.4,   2.7,   0.0,  1.73, 
 03/04/10, 09:00,  -2.1,  67,   1.2,   2.3,   2.7,   0.0,  2.47, 
 03/04/10, 10:00,   0.0,  61,   1.1,   2.2,   2.7,   0.0,  2.94, 
 03/04/10, 11:00,   2.5,  52,   1.2,   2.2,   2.7,   0.0,  3.20, 
 03/04/10, 12:00,   3.0,  49,   2.0,   2.1,   2.7,   0.0,  3.35, 
 03/04/10, 13:00,   4.0,  40,   3.2,   2.1,   2.7,   0.0,  3.10, 
 03/04/10, 14:00,   4.1,  39,   4.0,   2.2,   2.7,   0.0,  2.73, 
 03/04/10, 15:00,   4.0,  42,   4.3,   2.3,   2.7,   0.0,  2.26, 
 03/04/10, 16:00,   3.7,  44,   4.4,   2.5,   2.7,   0.0,  1.72, 
 03/04/10, 17:00,   2.4,  51,   4.4,   2.7,   2.7,   0.0,  1.04, 
 03/04/10, 18:00,   1.0,  57,   4.3,   2.8,   2.7,   0.0,  0.41, 
 03/04/10, 19:00,  -1.1,  70,   4.0,   2.9,   2.7,   0.0,  0.00, 
 03/04/10, 20:00,  -1.3,  65,   3.7,   3.0,   2.7,   0.0,  0.00, 
 03/04/10, 21:00,  -2.4,  75,   3.3,   3.1,   2.7,   0.0,  0.00, 
 03/04/10, 22:00,  -2.1,  66,   3.0,   3.1,   2.7,   0.0,  0.00, 
 03/04/10, 23:00,  -1.6,  54,   2.7,   3.1,   2.7,   0.0,  0.00, 
 03/04/11, 00:00,   1.3,  27,   2.5,   3.0,   2.7,   0.0,  0.00, 
 03/04/11, 01:00,  -1.1,  36,   2.3,   2.9,   2.7,   0.0,  0.00, 
 03/04/11, 02:00,  -0.7,  35,   2.1,   2.9,   2.7,   0.0,  0.00, 
 03/04/11, 03:00,  -0.2,  62,   1.9,   2.7,   2.7,   0.0,  0.00, 
 03/04/11, 04:00,  -1.5,  67,   1.8,   2.7,   2.7,   0.0,  0.00, 
 03/04/11, 05:00,  -2.5,  69,   1.6,   2.6,   2.7,   0.0,  0.00, 
 03/04/11, 06:00,  -2.0,  62,   1.5,   2.5,   2.7,   0.0,  0.03, 
 03/04/11, 07:00,   0.1,  56,   1.4,   2.5,   2.8,   0.0,  0.28, 
 03/04/11, 08:00,   3.7,  34,   1.4,   2.4,   2.8,   0.0,  0.95, 
 03/04/11, 09:00,   5.0,  52,   1.3,   2.3,   2.8,   0.0,  1.63, 
 03/04/11, 10:00,   6.0,  60,   1.3,   2.4,   2.8,   0.0,  2.29, 
 03/04/11, 11:00,   6.5,  67,   1.6,   2.3,   2.8,   0.0,  1.57, 
 03/04/11, 12:00,   4.0,  74,   2.2,   2.3,   2.8,   0.0,  0.69, 
 03/04/11, 13:00,   4.8,  80,   2.5,   2.3,   2.8,   0.0,  0.63, 
 03/04/11, 14:00,   5.0,  78,   2.8,   2.3,   2.8,   0.0,  0.48, 
 03/04/11, 15:00,   3.5,  90,   2.9,   2.4,   2.7,   0.0,  0.50, 
 03/04/11, 16:00,   2.8,  98,   3.1,   2.4,   2.7,   0.0,  0.28, 
 03/04/11, 17:00,   3.1,  98,   3.1,   2.4,   2.7,   0.0,  0.09, 
 03/04/11, 18:00,   3.3,  95,   3.1,   2.4,   2.7,   0.5,  0.00, 
 03/04/11, 19:00,   3.6,  94,   3.1,   2.5,   2.7,   0.5,  0.00, 
 03/04/11, 20:00,   3.8,  94,   3.0,   2.5,   2.7,   0.0,  0.00, 
 03/04/11, 21:00,   3.9,  95,   3.0,   2.6,   2.7,   0.0,  0.00, 
 03/04/11, 22:00,   4.0,  97,   2.9,   2.6,   2.7,   0.5,  0.00, 
 03/04/11, 23:00,   4.0,  97,   2.9,   2.6,   2.7,   0.5,  0.00, 
 03/04/12, 00:00,   3.7,  99,   2.9,   2.6,   2.7,   0.0,  0.00, 
 03/04/12, 01:00,   4.5,  94,   2.9,   2.7,   2.7,   0.0,  0.00, 
 03/04/12, 02:00,   4.4,  97,   2.9,   2.7,   2.7,   0.0,  0.00, 
 03/04/12, 03:00,   3.9,  99,   2.9,   2.8,   2.7,   0.0,  0.00, 
 03/04/12, 04:00,   4.8,  97,   2.8,   2.7,   2.7,   0.0,  0.00, 
 03/04/12, 05:00,   5.3,  98,   2.8,   2.8,   2.7,   0.0,  0.00, 
 03/04/12, 06:00,   5.6,  96,   2.8,   2.7,   2.7,   0.0,  0.00, 
 03/04/12, 07:00,   6.8,  94,   2.9,   2.7,   2.7,   0.5,  0.15, 
 03/04/12, 08:00,   6.3,  99,   3.0,   2.8,   2.8,   0.0,  0.35, 
 03/04/12, 09:00,   8.2,  93,   3.1,   2.8,   2.8,   0.0,  0.84, 
 03/04/12, 10:00,   7.4,  99,   3.4,   2.8,   2.8,   0.0,  0.70, 
 03/04/12, 11:00,   8.1,  99,   3.7,   2.7,   2.8,   1.5,  0.77, 
 03/04/12, 12:00,   7.9,  99,   4.1,   2.9,   2.8,   2.5,  0.46, 
 03/04/12, 13:00,   9.0,  99,   4.5,   2.9,   2.8,   2.5,  0.88, 
 03/04/12, 14:00,   8.1,  99,   4.8,   3.1,   2.8,   1.5,  0.44, 
 03/04/12, 15:00,   7.7,  99,   5.0,   3.1,   2.8,   1.5,  0.18, 
 03/04/12, 16:00,   8.4,  99,   5.2,   3.3,   2.8,   3.5,  0.36, 
 03/04/12, 17:00,   9.4,  96,   5.4,   3.5,   2.8,   0.5,  0.30, 
 03/04/12, 18:00,   8.7,  99,   5.5,   3.6,   2.8,   1.5,  0.04, 
 03/04/12, 19:00,   8.8,  99,   5.5,   3.7,   2.8,   1.0,  0.00, 
 03/04/12, 20:00,   9.7,  99,   5.5,   3.9,   2.8,   0.0,  0.00, 
 03/04/12, 21:00,   9.0,  99,   5.5,   3.9,   2.8,   0.5,  0.00, 
 03/04/12, 22:00,   9.5,  99,   5.5,   4.0,   2.9,   1.0,  0.00, 
 03/04/12, 23:00,   9.4,  99,   5.4,   4.0,   2.9,   0.0,  0.00, 
 03/04/13, 00:00,   8.1,  99,   5.3,   4.0,   2.9,   0.0,  0.00, 
 03/04/13, 01:00,   6.8,  99,   5.4,   4.1,   3.0,   0.0,  0.00, 
 03/04/13, 02:00,   6.7,  99,   5.2,   4.1,   3.0,   0.0,  0.00, 
 03/04/13, 03:00,   6.3,  99,   5.2,   4.1,   3.0,   0.0,  0.00, 
 03/04/13, 04:00,   7.3,  99,   5.0,   4.2,   3.0,   0.0,  0.00, 
 03/04/13, 05:00,   6.2,  99,   4.9,   4.2,   3.1,   0.0,  0.00, 
 03/04/13, 06:00,   5.0,  99,   4.7,   4.2,   3.1,   0.5,  0.03, 
 03/04/13, 07:00,   5.6,  99,   4.7,   4.2,   3.1,   0.0,  0.48, 
 03/04/13, 08:00,   6.8,  94,   4.7,   4.1,   3.2,   0.0,  1.01, 
 03/04/13, 09:00,   7.6,  83,   4.9,   4.1,   3.2,   0.0,  1.17, 
 03/04/13, 10:00,   9.8,  60,   5.2,   4.1,   3.2,   0.0,  2.02, 
 03/04/13, 11:00,  10.7,  66,   5.7,   4.1,   3.2,   0.0,  3.03, 
 03/04/13, 12:00,  11.0,  55,   6.7,   4.2,   3.3,   0.0,  3.06, 
 03/04/13, 13:00,  11.0,  35,   7.8,   4.4,   3.3,   0.0,  3.14, 
 03/04/13, 14:00,  11.6,  41,   8.3,   4.5,   3.3,   0.0,  2.98, 
 03/04/13, 15:00,  11.2,  46,   8.3,   4.8,   3.3,   0.0,  2.36, 
 03/04/13, 16:00,   9.4,  44,   8.2,   5.0,   3.3,   0.0,  1.85, 
 03/04/13, 17:00,   8.9,  49,   8.1,   5.2,   3.4,   0.0,  1.15, 
 03/04/13, 18:00,   7.3,  60,   7.8,   5.3,   3.4,   0.0,  0.42, 
 03/04/13, 19:00,   5.2,  66,   7.5,   5.3,   3.4,   0.0,  0.01, 
 03/04/13, 20:00,   4.1,  64,   7.1,   5.4,   3.4,   0.0,  0.00, 
 03/04/13, 21:00,   3.6,  64,   6.7,   5.5,   3.5,   0.0,  0.00, 
 03/04/13, 22:00,   4.4,  49,   6.3,   5.5,   3.5,   0.0,  0.00, 
 03/04/13, 23:00,   3.9,  38,   6.0,   5.4,   3.5,   0.0,  0.00, 
 03/04/14, 00:00,   3.0,  42,   5.5,   5.4,   3.6,   0.0,  0.00, 
 03/04/14, 01:00,   1.1,  59,   5.3,   5.3,   3.6,   0.0,  0.00, 
 03/04/14, 02:00,   4.3,  27,   5.0,   5.2,   3.6,   0.0,  0.00, 
 03/04/14, 03:00,   2.5,  52,   4.7,   5.2,   3.7,   0.0,  0.00, 
 03/04/14, 04:00,   1.3,  67,   4.4,   5.1,   3.7,   0.0,  0.00, 
 03/04/14, 05:00,   0.9,  53,   4.2,   5.0,   3.7,   0.0,  0.00, 
 03/04/14, 06:00,   0.9,  49,   4.0,   4.8,   3.8,   0.0,  0.03, 
 03/04/14, 07:00,   3.1,  55,   3.9,   4.7,   3.8,   0.0,  0.45, 
 03/04/14, 08:00,   3.2,  64,   3.8,   4.6,   3.8,   0.0,  0.87, 
 03/04/14, 09:00,   5.5,  57,   4.0,   4.5,   3.8,   0.0,  1.71, 
 03/04/14, 10:00,   6.5,  62,   4.3,   4.4,   3.8,   0.0,  1.72, 
 03/04/14, 11:00,   6.8,  62,   4.7,   4.4,   3.8,   0.0,  1.42, 
 03/04/14, 12:00,   8.4,  45,   5.2,   4.5,   3.8,   0.0,  1.67, 
 03/04/14, 13:00,   9.4,  52,   5.7,   4.5,   3.9,   0.0,  1.63, 
 03/04/14, 14:00,   9.1,  58,   6.1,   4.5,   3.9,   0.0,  1.50, 
 03/04/14, 15:00,   8.5,  46,   6.5,   4.6,   4.0,   0.0,  0.85, 
 03/04/14, 16:00,   8.4,  55,   6.7,   4.7,   4.0,   0.0,  0.74, 
 03/04/14, 17:00,   6.9,  69,   6.7,   4.8,   4.0,   0.0,  0.24, 
 03/04/14, 18:00,   4.6,  84,   6.7,   4.9,   3.9,   0.0,  0.07, 
 03/04/14, 19:00,   4.0,  90,   6.5,   5.0,   3.9,   0.0,  0.00, 
 03/04/14, 20:00,   4.3,  84,   6.3,   5.1,   3.9,   0.0,  0.00, 
 03/04/14, 21:00,   4.2,  83,   6.1,   5.1,   3.9,   0.0,  0.00, 
 03/04/14, 22:00,   4.5,  80,   5.9,   5.1,   3.9,   0.5,  0.00, 
 03/04/14, 23:00,   4.5,  81,   5.7,   5.2,   3.9,   0.0,  0.00, 
 03/04/15, 00:00,   3.4,  87,   5.6,   5.2,   3.9,   0.0,  0.00, 
 03/04/15, 01:00,   3.0,  95,   5.4,   5.1,   3.9,   0.0,  0.00, 
 03/04/15, 02:00,   3.1,  94,   5.3,   5.1,   4.0,   0.0,  0.00, 
 03/04/15, 03:00,   3.0,  95,   5.2,   5.1,   4.0,   0.0,  0.00, 
 03/04/15, 04:00,   2.4,  99,   5.1,   5.0,   4.0,   0.0,  0.00, 
 03/04/15, 05:00,   2.3,  99,   5.0,   5.0,   4.0,   0.0,  0.00, 
 03/04/15, 06:00,   2.5,  99,   4.9,   5.0,   4.0,   0.0,  0.00, 
 03/04/15, 07:00,   3.7,  91,   4.8,   4.9,   4.0,   0.0,  0.04, 
 03/04/15, 08:00,   3.4,  99,   4.7,   4.8,   4.0,   0.0,  0.17, 
 03/04/15, 09:00,   5.2,  97,   4.7,   4.8,   4.1,   0.0,  0.37, 
 03/04/15, 10:00,   5.5,  98,   4.8,   4.8,   4.1,   0.0,  0.47, 
 03/04/15, 11:00,   6.7,  98,   5.0,   4.8,   4.1,   0.0,  1.04, 
 03/04/15, 12:00,   6.9,  98,   5.3,   4.8,   4.1,   0.0,  0.90, 
 03/04/15, 13:00,   6.1,  99,   5.6,   4.8,   4.1,   0.0,  0.59, 
 03/04/15, 14:00,   6.7,  97,   5.8,   4.8,   4.1,   0.5,  0.97, 
 03/04/15, 15:00,   7.1,  85,   6.0,   4.8,   4.1,   0.0,  0.58, 
 03/04/15, 16:00,   8.3,  84,   6.2,   4.9,   4.1,   0.0,  0.87, 
 03/04/15, 17:00,   7.7,  85,   6.4,   4.9,   4.1,   0.0,  0.82, 
 03/04/15, 18:00,   7.4,  83,   6.6,   5.0,   4.1,   0.0,  0.41, 
 03/04/15, 19:00,   4.2,  95,   6.5,   5.1,   4.1,   0.0,  0.01, 
 03/04/15, 20:00,   4.5,  94,   6.3,   5.1,   4.1,   0.0,  0.00, 
 03/04/15, 21:00,   3.7,  97,   6.0,   5.2,   4.1,   0.0,  0.00, 
 03/04/15, 22:00,   3.1,  98,   5.7,   5.2,   4.1,   0.0,  0.00, 
 03/04/15, 23:00,   3.9,  95,   5.4,   5.2,   4.1,   0.0,  0.00, 
 03/04/16, 00:00,   2.6,  99,   5.2,   5.2,   4.2,   0.0,  0.00, 
 03/04/16, 01:00,   4.4,  92,   5.0,   5.2,   4.2,   0.0,  0.00, 